{"data":{"norad_id":68520,"intl_designator":"2026-068N","name":"STARLINK-37126","alt_names":[],"object_type":"PAYLOAD","status":"ACTIVE","operator":null,"country":"US","launch_date":"2026-03-30","launch_site_code":"AFETR","launch_vehicle":null,"mission":null,"orbit_class":"UNKNOWN","rcs_meters":null,"size_class":null,"mass_kg":null,"dimensions":null,"purposes":["comms"],"wikipedia_slug":null,"has_3d_model":false,"image_url":null,"decayed_at":null,"tle_current":{"epoch":"2026-05-25T02:35:17.021760Z","epoch_age_seconds":68896,"freshness":"FRESH","line1":"1 68520U 26068N   26145.10783590  .00029759  00000+0  88807-3 0  9999","line2":"2 68520  53.1589 132.9780 0001134  98.4100 261.7031 15.34412112  8669","mean_motion":15.34412112,"eccentricity":0.0001134,"inclination_deg":53.1589,"raan_deg":132.978,"arg_perigee_deg":98.41,"mean_anomaly_deg":261.7031,"bstar":0.00088807,"rev_number":866,"period_min":93.84701728684,"perigee_km":461.89149382649,"apogee_km":463.44298822835,"semimajor_km":6840.8042410274,"source":"CELESTRAK","updated_at":"2026-05-25T13:38:21.954948Z"}}}